TimeHST,TemperatureF,Dew PointF,Humidity,Sea Level PressureIn,VisibilityMPH,Wind Direction,Wind SpeedMPH,Gust SpeedMPH,PrecipitationIn,Events,Conditions,WindDirDegrees,DateUTC
12:53 AM,72.0,63.0,73,30.03,10.0,East,9.2,-,N/A,,Mostly Cloudy,100,2012-12-23 10:53:00
1:53 AM,68.0,62.1,81,30.02,10.0,Variable,3.5,-,N/A,,Clear,0,2012-12-23 11:53:00
2:43 AM,69.8,62.6,78,30.01,10.0,WSW,5.8,-,N/A,,Overcast,240,2012-12-23 12:43:00
2:53 AM,70.0,64.0,81,30.01,10.0,SW,3.5,-,N/A,,Overcast,220,2012-12-23 12:53:00
3:06 AM,69.8,64.4,83,30.01,10.0,WSW,4.6,-,N/A,,Overcast,240,2012-12-23 13:06:00
3:15 AM,69.8,62.6,78,30.01,10.0,West,4.6,-,N/A,,Mostly Cloudy,260,2012-12-23 13:15:00
3:53 AM,66.9,63.0,87,30.00,10.0,SW,8.1,-,N/A,,Overcast,230,2012-12-23 13:53:00
4:53 AM,66.9,62.1,84,30.00,10.0,WNW,4.6,-,N/A,,Scattered Clouds,300,2012-12-23 14:53:00
5:53 AM,66.0,61.0,84,30.01,10.0,West,5.8,-,N/A,,Mostly Cloudy,260,2012-12-23 15:53:00
6:53 AM,66.9,62.1,84,30.02,10.0,West,6.9,-,N/A,,Overcast,270,2012-12-23 16:53:00
7:53 AM,69.1,63.0,81,30.03,10.0,WSW,4.6,-,N/A,,Overcast,240,2012-12-23 17:53:00
8:53 AM,72.0,63.0,73,30.04,10.0,WSW,5.8,-,N/A,,Clear,250,2012-12-23 18:53:00
9:53 AM,75.9,64.0,67,30.04,10.0,NE,4.6,-,N/A,,Clear,50,2012-12-23 19:53:00
10:53 AM,75.9,64.0,67,30.04,10.0,Calm,Calm,-,N/A,,Clear,0,2012-12-23 20:53:00
11:53 AM,75.9,64.0,67,30.01,10.0,East,4.6,-,N/A,,Clear,80,2012-12-23 21:53:00
12:53 PM,75.0,62.1,64,29.99,10.0,ESE,5.8,-,N/A,,Clear,120,2012-12-23 22:53:00
1:53 PM,75.0,63.0,66,29.96,10.0,ESE,4.6,-,N/A,,Clear,110,2012-12-23 23:53:00
2:53 PM,75.9,64.0,67,29.94,10.0,ESE,8.1,-,N/A,,Clear,120,2012-12-24 00:53:00
3:53 PM,75.0,63.0,66,29.94,10.0,ESE,6.9,-,N/A,,Scattered Clouds,120,2012-12-24 01:53:00
4:53 PM,73.9,63.0,68,29.95,10.0,ESE,6.9,-,N/A,,Partly Cloudy,110,2012-12-24 02:53:00
5:53 PM,73.0,63.0,71,29.96,10.0,ESE,4.6,-,N/A,,Mostly Cloudy,120,2012-12-24 03:53:00
6:53 PM,73.0,63.0,71,29.98,10.0,ENE,4.6,-,N/A,,Mostly Cloudy,70,2012-12-24 04:53:00
7:53 PM,70.0,63.0,78,29.99,10.0,WNW,3.5,-,N/A,,Clear,290,2012-12-24 05:53:00
8:53 PM,70.0,64.0,81,30.00,10.0,WNW,5.8,-,N/A,,Scattered Clouds,290,2012-12-24 06:53:00
9:53 PM,69.1,63.0,81,30.01,10.0,West,6.9,-,N/A,,Partly Cloudy,270,2012-12-24 07:53:00
10:53 PM,69.1,63.0,81,30.01,10.0,West,9.2,-,N/A,,Clear,280,2012-12-24 08:53:00
11:53 PM,69.1,62.1,78,30.01,10.0,West,6.9,-,N/A,,Clear,270,2012-12-24 09:53:00